Wind_Speed
40 38 37 36 35 33 32 31 29 28 27 26 25 24 24 23 23 23 23 24 25 26 27 28 29 29 30 32 33 34 35 37 38 39 39 40 42 43 44 44 45 46 47
42 40 38 38 36 35 34 32 31 30 28 27 27 26 25 25 24 24 25 25 26 27 28 29 30 31 32 33 34 36 37 38 39 39 41 42 43 44 45 46 47 48 49
43 41 40 39 37 36 35 33 32 31 30 29 28 27 27 26 26 26 26 27 27 28 29 30 31 32 33 34 36 37 38 39 40 41 42 43 44 45 46 48 49 50 50
44 43 42 41 39 37 36 34 33 32 31 30 29 29 28 27 27 27 28 28 29 29 30 31 32 33 35 36 37 38 39 40 41 42 43 44 46 47 48 49 51 52 52
46 45 43 41 40 38 37 35 34 33 32 31 30 30 29 29 29 29 29 29 30 30 31 32 33 34 36 37 38 39 41 42 42 43 44 46 47 48 50 51 52 53 54
47 46 44 42 41 39 38 36 35 34 33 32 31 31 30 30 30 30 30 30 31 31 32 33 34 35 37 38 40 41 42 43 44 45 46 47 48 50 51 53 54 55 56
48 47 45 43 42 40 38 37 36 35 34 33 32 32 31 31 31 31 31 32 32 32 33 34 35 36 38 39 41 42 43 44 45 46 47 48 50 51 53 54 56 57 57
48 47 46 44 43 41 39 38 37 36 34 33 33 33 32 32 32 32 32 32 33 33 34 35 36 38 39 40 42 43 44 45 46 47 48 49 51 53 54 56 57 59 60
48 47 46 45 44 42 40 39 38 36 36 35 34 34 33 33 33 33 33 33 34 34 35 36 37 39 40 41 43 44 45 46 47 48 49 51 53 54 56 58 59 61 61
49 48 47 46 45 43 42 40 39 38 37 36 36 35 35 34 34 34 34 34 34 35 36 37 39 40 41 42 43 44 45 46 47 48 50 52 54 56 58 60 61 61 62
50 49 48 47 46 45 43 42 40 39 38 37 36 36 36 35 35 35 35 35 35 36 37 38 40 41 42 42 44 45 46 47 48 49 51 53 55 57 59 61 61 61 61
49 47 47 46 46 45 44 42 41 40 39 38 37 37 37 36 36 36 36 36 37 37 38 39 40 41 42 43 44 45 47 48 49 51 53 54 57 59 60 61 61 61 61
48 48 47 47 46 45 44 43 42 40 39 38 38 37 37 37 37 37 37 37 37 38 38 40 41 42 43 44 45 46 47 49 50 52 54 55 58 60 60 61 60 60 60
47 47 46 47 46 45 44 43 42 41 40 39 38 38 38 37 37 37 37 37 38 38 39 40 41 42 43 44 45 47 48 49 51 52 54 57 59 60 60 60 60 60 60
46 46 46 47 46 45 44 43 42 41 40 39 39 38 38 37 37 37 37 38 39 39 39 40 41 42 43 45 46 47 48 50 51 53 55 57 59 59 59 59 60 60 59
46 46 46 46 46 45 44 43 42 41 40 39 38 38 37 37 37 38 38 39 39 40 40 41 41 41 43 45 47 48 49 51 52 54 56 57 58 58 58 59 60 59 59
46 46 45 46 45 45 44 43 42 41 40 39 38 37 37 37 37 38 38 38 39 40 40 41 41 42 44 45 46 47 49 50 52 54 56 57 57 57 58 59 59 58 57
47 47 46 45 44 44 44 43 42 41 40 39 37 37 37 37 37 37 37 38 39 39 40 40 41 42 44 45 46 47 49 50 52 54 55 56 57 57 58 58 58 57 56
48 48 47 45 43 43 43 42 41 41 40 39 38 37 37 36 36 36 37 38 38 39 40 40 41 43 43 44 46 48 49 50 52 53 54 55 56 57 57 57 56 56 55
49 48 46 45 44 42 41 41 40 40 39 39 38 37 36 36 36 37 37 37 38 38 39 40 41 42 43 44 46 48 49 50 51 52 54 54 56 57 57 56 55 55 54
49 47 46 46 44 43 41 41 40 40 39 38 37 37 36 36 36 36 36 37 38 38 39 40 41 42 43 44 46 48 49 50 50 51 53 54 55 55 54 53 53 54 54
49 48 47 46 45 43 42 41 40 40 40 39 38 37 36 35 35 35 36 37 38 38 39 40 41 42 43 45 46 47 48 49 50 51 52 53 54 53 52 52 53 53 54
48 49 46 46 45 44 42 41 41 40 39 38 37 37 35 34 35 35 36 37 37 38 39 40 41 41 43 44 46 47 47 48 49 50 51 51 52 52 52 52 53 54 53
48 48 48 47 45 43 43 41 40 39 38 38 37 37 35 34 35 36 36 37 38 39 39 40 40 41 42 44 45 45 46 47 48 49 49 50 50 50 51 52 53 53 52
47 47 48 48 46 45 43 41 40 39 38 37 37 36 34 34 35 36 36 37 37 38 39 40 40 40 42 43 44 45 45 46 47 48 49 49 49 49 50 51 52 52 49
46 46 46 46 46 45 44 42 41 40 38 37 36 35 35 35 35 35 35 35 35 37 38 39 39 40 41 42 43 43 44 45 46 47 47 48 48 48 48 50 50 49 47
Wind_Direction
240 241 241 241 242 245 247 249 252 255 257 260 264 268 273 277 280 284 288 292 295 298 301 304 307 310 311 312 314 315 315 316 317 317 318 319 320 320 320 319 319 318 317
239 240 240 241 242 244 246 249 252 255 257 260 263 267 272 276 279 283 287 291 295 297 300 303 307 309 311 312 313 314 315 316 316 317 318 319 319 320 320 319 319 318 317
238 239 240 241 242 243 246 248 251 254 257 260 263 267 271 275 279 282 287 291 294 297 300 303 306 308 310 311 313 314 315 316 316 317 317 318 319 319 319 319 319 319 318
237 238 239 240 241 243 245 248 250 253 257 260 262 266 270 274 279 282 287 291 294 296 299 303 306 308 309 310 312 314 315 315 316 316 317 318 319 319 319 320 320 319 318
236 238 238 239 241 242 244 247 250 253 256 259 262 266 269 274 279 283 287 291 294 296 299 302 306 308 309 310 312 313 314 315 315 316 317 317 318 319 319 319 320 319 318
235 236 237 238 240 242 244 246 250 252 256 259 262 265 269 273 278 283 287 290 293 296 299 302 305 308 310 311 312 313 314 315 315 316 316 317 318 319 319 319 320 319 319
233 235 237 237 239 242 243 246 250 252 255 259 262 265 269 273 278 283 287 290 293 296 298 301 304 307 310 311 312 313 314 314 315 316 316 317 318 319 319 320 320 320 319
233 234 236 237 238 241 244 246 249 252 255 258 262 266 269 273 277 282 286 290 293 296 298 301 304 307 309 311 312 313 313 314 315 316 317 318 319 319 319 320 320 320 319
233 232 234 236 238 241 244 247 249 252 255 258 262 266 269 272 276 281 285 289 293 296 298 301 305 307 309 310 312 313 313 314 315 316 317 318 319 319 319 320 320 320 319
232 233 234 236 238 241 244 247 249 252 255 258 262 266 269 272 276 280 284 288 292 295 298 300 303 306 308 310 311 313 314 314 315 316 317 318 319 319 320 320 320 320 320
231 233 234 236 238 240 243 246 249 252 255 258 262 265 268 272 276 280 284 288 291 294 296 299 302 306 308 310 311 313 314 315 315 316 317 318 319 319 320 320 320 321 321
232 234 235 237 238 240 242 245 248 251 254 258 261 265 268 272 276 279 283 287 291 293 296 299 303 306 308 309 311 313 314 315 316 317 317 318 319 320 321 321 321 321 322
233 235 236 237 239 240 241 244 247 251 254 258 261 265 268 272 275 279 283 286 290 293 296 299 303 305 307 308 311 313 314 315 316 317 318 319 320 321 321 322 322 322 322
232 235 235 237 239 240 242 245 247 250 254 257 261 265 268 272 275 279 283 286 290 293 296 299 302 304 306 308 311 313 315 315 316 317 318 319 320 321 321 322 323 323 323
231 234 235 236 238 240 243 245 247 251 254 257 262 265 268 272 276 279 283 287 290 294 297 299 302 304 306 309 311 313 314 315 316 318 319 320 321 322 322 323 323 323 323
230 233 234 235 238 240 242 246 249 251 254 258 262 266 269 272 275 279 283 287 290 294 297 300 302 304 307 309 311 313 315 316 317 318 319 321 322 322 323 324 324 324 324
231 233 234 236 238 241 243 247 249 251 255 258 261 265 268 272 276 280 284 287 291 294 297 300 302 305 307 310 312 313 315 316 317 318 319 321 322 323 324 324 324 324 324
231 233 235 237 238 242 244 247 250 253 255 258 261 265 268 272 277 280 284 287 291 294 297 299 302 304 307 309 312 313 315 316 317 319 320 322 323 324 324 325 325 325 325
232 233 235 238 239 242 245 246 249 253 255 257 260 264 267 272 277 280 284 287 291 293 296 299 302 305 307 310 312 314 315 317 318 319 321 323 324 324 325 325 326 326 326
234 234 235 237 238 241 244 246 249 252 255 258 261 264 268 272 276 280 284 288 291 293 296 299 302 305 308 311 313 315 316 317 319 320 322 324 325 325 325 326 326 327 327
232 235 236 237 239 241 243 246 249 252 256 259 262 265 269 272 276 280 285 288 291 294 296 299 303 306 309 311 314 315 316 318 319 321 323 324 325 325 326 327 328 328 328
232 236 237 238 239 241 243 246 249 253 256 259 262 265 268 272 277 281 285 288 290 293 296 299 303 306 309 312 314 316 317 318 319 321 323 324 326 327 327 328 329 329 329
233 235 236 239 240 240 243 246 249 252 256 258 261 265 269 273 277 281 285 288 290 294 297 300 303 306 309 312 314 316 317 318 320 322 324 325 327 327 328 329 329 330 329
235 235 237 239 240 241 243 245 248 251 254 257 260 265 268 272 275 280 284 288 290 294 297 301 303 306 309 312 314 316 317 319 321 323 324 326 327 327 328 329 330 330 330
232 234 236 239 241 243 244 246 248 250 253 256 261 264 267 272 276 279 283 286 290 294 297 300 303 306 309 312 314 316 318 319 321 323 324 326 327 328 328 330 330 331 331
232 235 237 239 241 243 244 247 248 250 253 256 260 263 267 272 276 280 284 287 291 295 297 300 303 306 309 312 314 316 318 320 322 323 325 326 328 328 329 330 331 332 333
Height
5809 5813 5816 5819 5822 5825 5827 5829 5830 5832 5833 5833 5834 5834 5834 5834 5833 5832 5831 5829 5828 5826 5823 5821 5818 5815 5812 5808 5804 5800 5796 5792 5787 5783 5778 5773 5767 5762 5756 5751 5745 5739 5733
5802 5806 5810 5813 5816 5819 5821 5823 5825 5827 5828 5828 5829 5829 5829 5829 5829 5828 5826 5825 5823 5821 5818 5816 5813 5810 5806 5803 5799 5795 5790 5786 5781 5776 5771 5766 5760 5754 5749 5743 5737 5731 5724
5794 5799 5803 5806 5809 5812 5815 5817 5819 5821 5823 5823 5824 5825 5824 5824 5824 5823 5822 5820 5818 5816 5813 5811 5808 5804 5801 5797 5793 5789 5784 5780 5775 5769 5764 5759 5753 5747 5741 5735 5728 5722 5715
5786 5791 5795 5799 5803 5806 5809 5811 5814 5815 5817 5818 5819 5819 5819 5819 5819 5818 5817 5815 5813 5811 5808 5805 5802 5799 5795 5791 5787 5782 5778 5773 5768 5762 5757 5751 5745 5739 5733 5726 5719 5713 5705
5778 5783 5787 5792 5796 5799 5802 5805 5807 5809 5811 5812 5813 5814 5814 5814 5813 5812 5811 5810 5808 5805 5803 5800 5796 5793 5789 5785 5780 5776 5771 5766 5761 5755 5749 5744 5737 5731 5724 5717 5710 5703 5695
5770 5774 5779 5784 5788 5792 5795 5798 5801 5803 5805 5806 5807 5808 5808 5808 5807 5807 5806 5804 5802 5799 5797 5794 5791 5787 5783 5778 5774 5769 5764 5759 5753 5748 5742 5736 5729 5722 5715 5708 5701 5693 5685
5761 5767 5772 5776 5781 5785 5788 5791 5794 5796 5798 5800 5801 5802 5802 5802 5802 5801 5800 5798 5796 5794 5791 5788 5784 5781 5776 5772 5767 5762 5757 5751 5746 5740 5734 5727 5720 5713 5706 5698 5691 5682 5674
5752 5758 5763 5768 5773 5777 5781 5784 5787 5789 5792 5793 5795 5795 5796 5796 5795 5795 5793 5792 5790 5787 5784 5781 5778 5774 5770 5765 5760 5755 5750 5744 5738 5732 5725 5719 5712 5704 5696 5688 5680 5672 5663
5743 5750 5755 5760 5765 5770 5774 5777 5780 5782 5785 5786 5788 5789 5789 5790 5789 5788 5787 5785 5783 5781 5778 5775 5771 5767 5763 5758 5753 5748 5742 5736 5730 5724 5717 5710 5702 5695 5687 5678 5669 5660 5650
5735 5741 5747 5752 5757 5762 5766 5769 5772 5775 5777 5779 5780 5782 5782 5783 5783 5782 5781 5779 5777 5774 5771 5768 5764 5760 5756 5751 5746 5740 5735 5729 5722 5715 5708 5701 5693 5685 5676 5667 5658 5648 5638
5725 5732 5738 5743 5749 5753 5758 5761 5765 5768 5770 5772 5773 5774 5775 5775 5775 5775 5774 5772 5770 5767 5764 5761 5757 5753 5749 5744 5738 5733 5727 5721 5714 5707 5700 5692 5684 5675 5666 5656 5647 5637 5627
5716 5723 5729 5735 5740 5745 5749 5753 5757 5760 5762 5764 5766 5767 5767 5768 5768 5767 5766 5765 5763 5760 5757 5753 5750 5746 5741 5736 5731 5725 5719 5713 5706 5699 5691 5683 5674 5665 5656 5646 5636 5625 5615
5708 5715 5720 5726 5731 5736 5741 5745 5748 5752 5754 5757 5758 5759 5760 5760 5760 5760 5759 5757 5755 5753 5750 5746 5742 5738 5734 5729 5723 5717 5711 5704 5697 5690 5682 5674 5665 5655 5645 5635 5625 5615 5604
5700 5706 5712 5718 5723 5728 5732 5736 5740 5744 5746 5749 5750 5751 5752 5752 5752 5752 5751 5749 5748 5745 5742 5739 5735 5731 5726 5721 5715 5709 5703 5696 5688 5681 5673 5664 5655 5645 5635 5625 5614 5604 5594
5690 5697 5703 5709 5714 5719 5724 5728 5732 5735 5738 5740 5742 5743 5744 5744 5744 5744 5743 5741 5740 5737 5735 5731 5727 5722 5717 5712 5707 5701 5694 5687 5679 5671 5663 5654 5645 5635 5624 5614 5604 5593 5583
5681 5688 5694 5700 5705 5710 5715 5720 5724 5727 5730 5732 5734 5735 5736 5737 5736 5736 5735 5733 5731 5729 5726 5722 5719 5715 5710 5704 5698 5692 5686 5678 5671 5662 5654 5645 5635 5625 5614 5604 5593 5583 5572
5673 5679 5685 5691 5697 5702 5706 5711 5715 5719 5721 5724 5726 5727 5728 5728 5728 5728 5726 5725 5723 5720 5717 5714 5710 5706 5702 5696 5690 5684 5677 5670 5662 5653 5644 5635 5625 5615 5605 5594 5583 5573 5562
5664 5670 5677 5682 5688 5693 5698 5703 5706 5710 5713 5715 5717 5719 5720 5720 5720 5719 5718 5716 5714 5712 5709 5706 5702 5698 5693 5688 5682 5675 5668 5661 5653 5644 5635 5625 5615 5606 5595 5585 5574 5563 5553
5655 5661 5668 5674 5679 5685 5690 5694 5698 5701 5704 5706 5709 5710 5711 5712 5712 5711 5710 5708 5706 5704 5701 5698 5694 5690 5685 5680 5674 5667 5659 5651 5643 5635 5626 5616 5606 5596 5586 5575 5564 5554 5544
5645 5652 5659 5665 5671 5676 5681 5685 5689 5692 5695 5698 5700 5702 5703 5703 5703 5703 5701 5700 5698 5695 5692 5689 5686 5681 5677 5671 5665 5659 5651 5643 5635 5626 5616 5607 5597 5587 5577 5567 5557 5546 5536
5637 5644 5650 5656 5662 5667 5672 5676 5680 5683 5686 5689 5691 5693 5694 5695 5695 5694 5693 5691 5690 5687 5684 5681 5677 5673 5668 5663 5657 5650 5643 5635 5626 5617 5608 5599 5590 5580 5569 5558 5548 5538 5528
5628 5634 5641 5647 5652 5658 5663 5667 5671 5674 5677 5680 5682 5684 5685 5686 5686 5685 5685 5683 5681 5679 5676 5673 5669 5665 5660 5654 5648 5641 5634 5627 5620 5611 5601 5591 5581 5571 5561 5551 5541 5531 5520
5619 5625 5632 5638 5644 5649 5654 5658 5662 5665 5668 5671 5673 5675 5676 5677 5677 5677 5676 5674 5672 5670 5668 5665 5661 5656 5651 5646 5640 5633 5625 5617 5610 5601 5592 5583 5573 5562 5553 5543 5533 5523 5513
5609 5615 5622 5628 5634 5640 5644 5649 5653 5656 5659 5662 5664 5666 5668 5669 5669 5669 5668 5666 5664 5662 5660 5657 5653 5648 5643 5637 5631 5624 5617 5609 5601 5592 5584 5575 5565 5555 5545 5536 5526 5516 5506
5599 5605 5612 5618 5624 5630 5635 5639 5643 5647 5650 5653 5655 5657 5659 5660 5660 5660 5659 5658 5656 5654 5651 5647 5644 5639 5634 5628 5622 5615 5609 5602 5594 5585 5577 5568 5559 5549 5539 5529 5519 5509 5499
5589 5596 5602 5608 5614 5620 5625 5630 5634 5637 5641 5644 5646 5649 5650 5651 5651 5651 5650 5649 5648 5645 5642 5639 5635 5631 5625 5620 5614 5607 5601 5594 5586 5578 5569 5561 5552 5543 5534 5523 5513 5503 5493